Mitchell, SD

5:32 AM CST on December 10, 2019 (GMT -0600)
Mitchell Municipal

Weather History for KMHE - August, 2019

Change the Weather History Date:

Saturday, August 24, 2019

  Actual Average Record
Temperature  
Mean Temperature 72 °F 71 °F  
Max Temperature 80 °F 82 °F 110 °F (1936)
Min Temperature 64 °F 59 °F 40 °F (1896)
Degree Days  
Heating Degree Days 0 0  
Month to date heating degree days 0 0  
Since 1 June heating degree days 16 40  
Since 1 July heating degree days 0 5  
Cooling Degree Days 7 6  
Month to date cooling degree days 201 189  
Year to date cooling degree days 781 707  
Since 1 June cooling degree days 762 667  
Growing Degree Days 22 (Base 50)    
Moisture  
Dew Point 62 °F    
Average Humidity 73    
Maximum Humidity 87    
Minimum Humidity 58    
Precipitation  
Precipitation 0.01 in 0.07 in 0.94 in (1982)
Month to date precipitation 2.14 1.89  
Year to date precipitation 23.06 15.86  
Snow  
Snow 0.00 in - 0.00 in ()
Month to date snowfall 0.0  
Since 1 June snowfall 0.0  
Since 1 July snowfall 0.0  
Snow Depth 0.00 in    
Sea Level Pressure  
Sea Level Pressure 30.02 in    
Wind  
Wind Speed 15 mph (SE)    
Max Wind Speed 24 mph    
Max Gust Speed 32 mph    
Visibility 10 miles    
Events Rain    
T = Trace of Precipitation, MM = Missing Value Source: NWS Daily Summary

Daily Weather History Graph

Daily Weather History Graph

Search for Another Location

Airport or City:

Astronomy

Aug. 24, 2019 Rise Set
Actual Time 6:46 AM CDT 8:21 PM CDT
Civil Twilight 6:16 AM CDT 8:51 PM CDT
Nautical Twilight 5:39 AM CDT 9:28 PM CDT
Astronomical Twilight 5:00 AM CDT 10:07 PM CDT
Moon 12:36 AM CDT (8/24) 3:44 PM CDT (8/24)
Length of Visible Light 14h 35m
Length of Day
13h 35m
Last Quarter, 39% of the Moon is Illuminated
Aug 24
Last Quarter
Aug 30
New
Sep 5
First Quarter
Sep 13
Full
Sep 21
Last Quarter

Hourly Weather History & Observations

Time (CDT) Temp. Dew Point Humidity Pressure Visibility Wind Dir Wind Speed Gust Speed Precip Events Conditions
12:53 AM 68.0 °F 61.0 °F 78% 30.08 in 10.0 mi SE 10.4 mph - N/A   Clear
1:53 AM 66.9 °F 61.0 °F 81% 30.09 in 10.0 mi SSE 10.4 mph - N/A   Clear
2:53 AM 66.0 °F 61.0 °F 84% 30.08 in 10.0 mi SE 9.2 mph - N/A   Clear
3:53 AM 66.9 °F 61.0 °F 81% 30.07 in 10.0 mi SE 10.4 mph - N/A   Overcast
4:53 AM 66.0 °F 60.1 °F 81% 30.07 in 10.0 mi SSE 12.7 mph - N/A   Partly Cloudy
5:53 AM 64.9 °F 60.1 °F 84% 30.07 in 10.0 mi SE 11.5 mph - N/A   Mostly Cloudy
6:53 AM 64.0 °F 59.0 °F 84% 30.06 in 10.0 mi SE 11.5 mph - N/A   Overcast
7:53 AM 64.9 °F 59.0 °F 81% 30.05 in 10.0 mi SE 15.0 mph 20.7 mph N/A   Mostly Cloudy
8:53 AM 68.0 °F 60.1 °F 76% 30.05 in 10.0 mi SSE 15.0 mph 23.0 mph N/A   Partly Cloudy
9:53 AM 71.1 °F 61.0 °F 70% 30.04 in 10.0 mi SSE 17.3 mph 27.6 mph N/A   Mostly Cloudy
10:53 AM 75.0 °F 62.1 °F 64% 30.02 in 10.0 mi SSE 18.4 mph 29.9 mph N/A   Clear
11:53 AM 77.0 °F 63.0 °F 62% 30.01 in 10.0 mi SSE 21.9 mph 31.1 mph N/A   Partly Cloudy
12:35 PM 75.9 °F 63.0 °F 64% 30.03 in 10.0 mi SSE 18.4 mph 31.1 mph N/A   Mostly Cloudy
12:53 PM 78.1 °F 64.0 °F 62% 30.01 in 10.0 mi SSE 20.7 mph 31.1 mph N/A   Mostly Cloudy
1:24 PM 79.0 °F 64.0 °F 60% 30.02 in 10.0 mi SE 21.9 mph 32.2 mph N/A   Scattered Clouds
1:34 PM 79.0 °F 63.0 °F 58% 30.02 in 10.0 mi SSE 18.4 mph - N/A   Mostly Cloudy
1:42 PM 77.0 °F 63.0 °F 62% 30.02 in 10.0 mi SSE 20.7 mph 28.8 mph N/A   Scattered Clouds
1:53 PM 77.0 °F 63.0 °F 62% 30.00 in 10.0 mi SSE 18.4 mph 29.9 mph N/A   Mostly Cloudy
2:01 PM 77.0 °F 64.0 °F 64% 30.02 in 10.0 mi SSE 18.4 mph 28.8 mph N/A   Scattered Clouds
2:53 PM 78.1 °F 63.0 °F 60% 30.00 in 10.0 mi SSE 20.7 mph 27.6 mph N/A   Scattered Clouds
3:53 PM 75.9 °F 62.1 °F 62% 29.99 in 10.0 mi SSE 19.6 mph 31.1 mph N/A   Mostly Cloudy
4:53 PM 73.0 °F 62.1 °F 68% 30.00 in 10.0 mi SSE 17.3 mph 26.5 mph N/A   Mostly Cloudy
5:53 PM 73.0 °F 61.0 °F 66% 30.00 in 10.0 mi SSE 18.4 mph 25.3 mph N/A   Scattered Clouds
6:53 PM 72.0 °F 61.0 °F 68% 29.98 in 10.0 mi SE 16.1 mph 25.3 mph N/A   Partly Cloudy
7:53 PM 71.1 °F 61.0 °F 70% 29.98 in 10.0 mi SE 13.8 mph - N/A   Clear
8:53 PM 69.1 °F 60.1 °F 73% 29.97 in 10.0 mi SE 11.5 mph - N/A   Mostly Cloudy
9:53 PM 69.1 °F 60.1 °F 73% 29.98 in 10.0 mi SE 15.0 mph 24.2 mph N/A   Overcast
10:53 PM 66.0 °F 61.0 °F 84% 29.96 in 6.0 mi SE 15.0 mph 20.7 mph 0.00 in Rain Light Rain
11:53 PM 64.9 °F 61.0 °F 87% 29.95 in 10.0 mi SSE 17.3 mph - 0.00 in   Overcast